THA925 EDDM-VTBS

Flight info

Callsign THA925
Flight time N/A
Altitude 37000
Route KIRDI2E/08R KIRDI DCT STEIN DCT TEGRI DCT DINRO N743 UDROS DCT BAMUP DCT ROLIN N644 LAGAS M747 SUBUT T923 ERLEV M11 RODAR A909 TUNEK B143 KRS A240 INRAK B449 RANAH L750 MERUN G452 LKN R460 CEA L507 IGONI DCT WILLA WILLA1C
Aircraft A359/H-SDE2E3GHIJ1J3J4J5LM1ORWXY/LB1D1

Departure

Time 2026-05-01 09:10
Airport Munich Airport (EDDM)

Arrival

Time N/A
Airport Suvarnabhumi Airport (VTBS)
Time Latitude Longitude Altitude Speed Heading
2026-05-01 08:04 48.35305 11.79332 1446 ft 0 kts 263°
2026-05-01 08:53 48.35306 11.79343 1461 ft 4 kts 262°
2026-05-01 08:53 48.35311 11.79383 1461 ft 4 kts 255°
2026-05-01 08:54 48.35319 11.79421 1461 ft 4 kts 246°
2026-05-01 08:54 48.35332 11.79455 1461 ft 4 kts 225°
2026-05-01 08:54 48.35351 11.79472 1461 ft 2 kts 174°
2026-05-01 08:54 48.35352 11.79472 1461 ft 0 kts 173°
2026-05-01 08:59 48.35351 11.79472 1461 ft 0 kts 173°
2026-05-01 08:59 48.35332 11.79475 1461 ft 7 kts 173°
2026-05-01 09:00 48.35251 11.79490 1463 ft 14 kts 173°
2026-05-01 09:00 48.35155 11.79506 1468 ft 14 kts 173°
2026-05-01 09:00 48.35061 11.79522 1461 ft 13 kts 173°
2026-05-01 09:00 48.34970 11.79538 1464 ft 13 kts 173°
2026-05-01 09:01 48.34892 11.79552 1468 ft 4 kts 173°
2026-05-01 09:01 48.34891 11.79552 1468 ft 0 kts 173°
2026-05-01 09:02 48.34879 11.79554 1468 ft 5 kts 173°
2026-05-01 09:02 48.34817 11.79558 1468 ft 11 kts 194°
2026-05-01 09:02 48.34782 11.79459 1461 ft 15 kts 258°
2026-05-01 09:03 48.34766 11.79258 1463 ft 23 kts 263°
2026-05-01 09:03 48.34748 11.79017 1470 ft 24 kts 264°
2026-05-01 09:03 48.34728 11.78770 1464 ft 24 kts 263°
2026-05-01 09:03 48.34710 11.78518 1462 ft 25 kts 263°
2026-05-01 09:04 48.34691 11.78260 1471 ft 25 kts 263°
2026-05-01 09:04 48.34670 11.77995 1472 ft 26 kts 263°
2026-05-01 09:04 48.34649 11.77726 1465 ft 26 kts 263°
2026-05-01 09:04 48.34629 11.77454 1461 ft 26 kts 263°
2026-05-01 09:05 48.34607 11.77178 1467 ft 27 kts 263°
2026-05-01 09:05 48.34586 11.76897 1461 ft 27 kts 263°
2026-05-01 09:05 48.34563 11.76612 1463 ft 28 kts 263°
2026-05-01 09:05 48.34542 11.76325 1471 ft 28 kts 263°
2026-05-01 09:06 48.34519 11.76034 1465 ft 28 kts 263°
2026-05-01 09:06 48.34496 11.75739 1465 ft 29 kts 263°
2026-05-01 09:06 48.34473 11.75442 1472 ft 29 kts 264°
2026-05-01 09:06 48.34456 11.75216 1472 ft 14 kts 263°
2026-05-01 09:07 48.34435 11.75085 1461 ft 11 kts 231°
2026-05-01 09:07 48.34361 11.75064 1467 ft 11 kts 174°
2026-05-01 09:07 48.34282 11.75078 1463 ft 11 kts 173°
2026-05-01 09:07 48.34226 11.75088 1463 ft 0 kts 173°
2026-05-01 09:08 48.34200 11.75092 1465 ft 8 kts 173°
2026-05-01 09:09 48.34129 11.75137 1462 ft 14 kts 142°
2026-05-01 09:09 48.34087 11.75229 1471 ft 9 kts 109°
2026-05-01 09:09 48.34084 11.75318 1477 ft 9 kts 85°
2026-05-01 09:09 48.34097 11.75513 1479 ft 43 kts 84°
2026-05-01 09:10 48.34155 11.76259 1470 ft 99 kts 83°
2026-05-01 09:10 48.34251 11.77515 1465 ft 145 kts 83°
2026-05-01 09:10 48.34367 11.79076 1998 ft 146 kts 85°
2026-05-01 09:10 48.34479 11.80612 2611 ft 150 kts 85°
2026-05-01 09:11 48.34596 11.82197 3190 ft 155 kts 85°
2026-05-01 09:11 48.34721 11.83819 3734 ft 160 kts 85°
2026-05-01 09:11 48.34853 11.85554 4000 ft 175 kts 85°
2026-05-01 09:11 48.34997 11.87464 4233 ft 192 kts 85°
2026-05-01 09:12 48.35149 11.89501 4626 ft 199 kts 86°
2026-05-01 09:12 48.35306 11.91598 5034 ft 207 kts 85°
2026-05-01 09:12 48.35225 11.93820 5228 ft 223 kts 105°
2026-05-01 09:12 48.34665 11.96084 5458 ft 241 kts 113°
2026-05-01 09:13 48.33954 11.98433 5932 ft 249 kts 114°
2026-05-01 09:13 48.33227 12.00812 6510 ft 252 kts 113°
2026-05-01 09:13 48.32504 12.03226 7083 ft 256 kts 113°
2026-05-01 09:13 48.31772 12.05693 7594 ft 260 kts 112°
2026-05-01 09:14 48.31033 12.08204 8100 ft 265 kts 112°
2026-05-01 09:14 48.30283 12.10739 8709 ft 266 kts 111°
2026-05-01 09:14 48.29530 12.13290 9296 ft 268 kts 111°
2026-05-01 09:14 48.28770 12.15867 9862 ft 271 kts 111°
2026-05-01 09:15 48.28002 12.18462 10417 ft 274 kts 111°
2026-05-01 09:15 48.27223 12.21093 10933 ft 277 kts 111°
2026-05-01 09:15 48.26437 12.23747 11445 ft 279 kts 111°
2026-05-01 09:15 48.25645 12.26419 11991 ft 281 kts 111°
2026-05-01 09:16 48.24845 12.29110 12501 ft 284 kts 111°
2026-05-01 09:16 48.24044 12.31834 13009 ft 287 kts 110°
2026-05-01 09:16 48.23501 12.34705 13511 ft 287 kts 94°
2026-05-01 09:17 48.23355 12.40903 13999 ft 310 kts 88°
2026-05-01 09:17 48.23331 12.44196 14226 ft 322 kts 89°
2026-05-01 09:17 48.23260 12.51135 14612 ft 344 kts 89°
2026-05-01 09:18 48.23215 12.54715 14851 ft 352 kts 89°
2026-05-01 09:18 48.22689 12.62085 15655 ft 359 kts 96°
2026-05-01 09:19 48.21977 12.69532 16496 ft 363 kts 95°
2026-05-01 09:19 48.21617 12.73308 16932 ft 365 kts 95°
2026-05-01 09:19 48.21257 12.77080 17355 ft 367 kts 95°
2026-05-01 09:20 48.20727 12.84706 18194 ft 369 kts 90°
2026-05-01 09:20 48.20695 12.92429 19005 ft 372 kts 86°
2026-05-01 09:21 48.20772 13.00034 19774 ft 374 kts 86°
2026-05-01 09:21 48.20803 13.03935 20116 ft 376 kts 86°
2026-05-01 09:21 48.20832 13.11823 20814 ft 380 kts 86°
2026-05-01 09:22 48.20834 13.19780 21510 ft 384 kts 86°
2026-05-01 09:22 48.20828 13.27811 22204 ft 387 kts 86°
2026-05-01 09:23 48.20824 13.31865 22550 ft 389 kts 86°
2026-05-01 09:23 48.20810 13.40002 23313 ft 391 kts 86°
2026-05-01 09:24 48.20791 13.48174 24040 ft 394 kts 86°
2026-05-01 09:24 48.20780 13.52287 24303 ft 396 kts 86°
2026-05-01 09:24 48.20750 13.60531 24849 ft 400 kts 87°
2026-05-01 09:25 48.19912 13.68866 25406 ft 412 kts 102°
2026-05-01 09:25 48.17742 13.76931 25957 ft 421 kts 109°
2026-05-01 09:26 48.16503 13.80917 26299 ft 422 kts 110°
2026-05-01 09:26 48.13949 13.88865 26930 ft 425 kts 110°
2026-05-01 09:26 48.12667 13.92865 27211 ft 427 kts 110°
2026-05-01 09:27 48.10105 14.00927 27790 ft 431 kts 109°
2026-05-01 09:27 48.08820 14.04990 28081 ft 433 kts 109°
2026-05-01 09:27 48.07532 14.09065 28365 ft 435 kts 109°
2026-05-01 09:28 48.06234 14.13170 28653 ft 437 kts 109°
2026-05-01 09:28 48.04932 14.17281 28981 ft 439 kts 109°
2026-05-01 09:28 48.03619 14.21416 29321 ft 440 kts 109°
2026-05-01 09:28 48.02308 14.25536 29635 ft 441 kts 109°
2026-05-01 09:29 47.99652 14.33864 30178 ft 446 kts 109°
2026-05-01 09:29 47.98332 14.37993 30465 ft 448 kts 109°
2026-05-01 09:30 47.95631 14.46419 30894 ft 452 kts 109°
2026-05-01 09:30 47.94266 14.50665 31151 ft 453 kts 109°
2026-05-01 09:30 47.91527 14.59161 31673 ft 456 kts 109°
2026-05-01 09:31 47.90152 14.63421 31884 ft 458 kts 109°
2026-05-01 09:31 47.88767 14.67706 32091 ft 459 kts 109°
2026-05-01 09:31 47.85980 14.76299 32503 ft 462 kts 109°
2026-05-01 09:32 47.84578 14.80608 32685 ft 464 kts 109°
2026-05-01 09:32 47.81749 14.89284 33060 ft 466 kts 109°
2026-05-01 09:32 47.80335 14.93607 33453 ft 464 kts 109°
2026-05-01 09:33 47.78919 14.97923 33845 ft 461 kts 109°
2026-05-01 09:33 47.77515 15.02205 34142 ft 460 kts 109°
2026-05-01 09:33 47.74702 15.10764 34578 ft 461 kts 109°
2026-05-01 09:34 47.73292 15.15046 34767 ft 461 kts 109°
2026-05-01 09:34 47.69486 15.26551 35261 ft 462 kts 109°
2026-05-01 09:35 47.68087 15.30770 35496 ft 462 kts 109°
2026-05-01 09:35 47.65229 15.39373 35872 ft 462 kts 109°
2026-05-01 09:35 47.63861 15.43475 36023 ft 462 kts 109°
2026-05-01 09:36 47.62436 15.47741 36175 ft 463 kts 109°
2026-05-01 09:36 47.61005 15.52025 36333 ft 463 kts 109°
2026-05-01 09:36 47.59571 15.56305 36501 ft 464 kts 110°
2026-05-01 09:36 47.58138 15.60577 36666 ft 464 kts 109°
2026-05-01 09:37 47.56699 15.64857 36819 ft 464 kts 110°
2026-05-01 09:37 47.53815 15.73422 37117 ft 466 kts 110°
2026-05-01 09:37 47.52366 15.77715 37249 ft 466 kts 110°
2026-05-01 09:38 47.49457 15.86310 37390 ft 470 kts 110°
2026-05-01 09:38 47.47989 15.90640 37395 ft 473 kts 110°
2026-05-01 09:39 47.43552 16.03660 37409 ft 472 kts 110°
2026-05-01 09:39 47.40590 16.12316 37391 ft 472 kts 110°
2026-05-01 09:40 47.36140 16.25278 37397 ft 472 kts 110°
2026-05-01 09:41 47.33161 16.33919 37394 ft 472 kts 110°
2026-05-01 09:41 47.28728 16.46880 37396 ft 469 kts 107°
2026-05-01 09:42 47.26277 16.55744 37389 ft 467 kts 105°
2026-05-01 09:43 47.21977 16.72055 37392 ft 467 kts 104°
2026-05-01 09:43 47.19238 16.82395 37380 ft 467 kts 104°
2026-05-01 09:44 47.16069 16.94266 37392 ft 466 kts 105°
2026-05-01 09:45 47.13691 17.03128 37384 ft 466 kts 105°
2026-05-01 09:45 47.10126 17.16355 37389 ft 466 kts 105°
2026-05-01 09:46 47.07733 17.25188 37389 ft 466 kts 105°
2026-05-01 09:46 47.05334 17.34013 37385 ft 466 kts 105°
2026-05-01 09:47 47.02929 17.42830 37383 ft 466 kts 105°
2026-05-01 09:47 47.00514 17.51653 37389 ft 466 kts 105°
2026-05-01 09:48 46.98095 17.60454 37381 ft 466 kts 105°
2026-05-01 09:48 46.95668 17.69250 37378 ft 466 kts 105°
2026-05-01 09:49 46.93237 17.78032 37376 ft 466 kts 105°
2026-05-01 09:49 46.90798 17.86810 37394 ft 466 kts 106°
2026-05-01 09:50 46.88348 17.95594 37372 ft 466 kts 106°
2026-05-01 09:50 46.85994 18.04003 37375 ft 466 kts 106°
2026-05-01 09:51 46.83626 18.12432 37376 ft 466 kts 106°
2026-05-01 09:51 46.81158 18.21187 37409 ft 466 kts 106°
2026-05-01 09:52 46.78684 18.29935 37374 ft 467 kts 107°
2026-05-01 09:52 46.76427 18.38779 37373 ft 461 kts 99°
2026-05-01 09:53 46.74789 18.47788 37371 ft 460 kts 98°
2026-05-01 09:53 46.73235 18.56843 37372 ft 460 kts 98°
2026-05-01 09:54 46.71682 18.65915 37373 ft 461 kts 99°
2026-05-01 09:54 46.70112 18.74983 37374 ft 462 kts 99°
2026-05-01 09:55 46.68526 18.84053 37368 ft 462 kts 99°
2026-05-01 09:55 46.66930 18.93124 37368 ft 462 kts 99°
2026-05-01 09:56 46.65328 19.02190 37371 ft 463 kts 99°
2026-05-01 09:56 46.63712 19.11294 37368 ft 464 kts 99°
2026-05-01 09:57 46.62088 19.20388 37366 ft 465 kts 99°
2026-05-01 09:57 46.60467 19.29423 37362 ft 465 kts 99°
2026-05-01 09:58 46.58829 19.38512 37370 ft 466 kts 99°
2026-05-01 09:58 46.57176 19.47643 37362 ft 469 kts 99°
2026-05-01 09:59 46.55508 19.56803 37362 ft 469 kts 100°
2026-05-01 09:59 46.53833 19.65954 37360 ft 469 kts 100°
2026-05-01 10:00 46.52149 19.75106 37369 ft 469 kts 100°
2026-05-01 10:00 46.50454 19.84284 37364 ft 471 kts 100°
2026-05-01 10:01 46.48749 19.93467 37353 ft 472 kts 100°
2026-05-01 10:01 46.47031 20.02667 37355 ft 472 kts 100°
2026-05-01 10:02 46.45309 20.11847 37348 ft 472 kts 100°
2026-05-01 10:02 46.43578 20.21031 37346 ft 472 kts 101°
2026-05-01 10:03 46.41840 20.30206 37347 ft 472 kts 101°
2026-05-01 10:03 46.40093 20.39383 37342 ft 472 kts 101°
2026-05-01 10:04 46.38340 20.48551 37361 ft 472 kts 101°
2026-05-01 10:04 46.36576 20.57739 37343 ft 475 kts 101°
2026-05-01 10:05 46.34797 20.66950 37342 ft 475 kts 101°
2026-05-01 10:05 46.33008 20.76167 37340 ft 475 kts 101°
2026-05-01 10:06 46.31214 20.85365 37363 ft 475 kts 101°
2026-05-01 10:06 46.29422 20.94522 37338 ft 477 kts 101°
2026-05-01 10:07 46.27604 21.03760 37348 ft 478 kts 102°
2026-05-01 10:07 46.25778 21.13008 37344 ft 478 kts 101°
2026-05-01 10:08 46.23152 21.26895 37351 ft 478 kts 101°
2026-05-01 10:09 46.21405 21.36177 37346 ft 480 kts 101°
2026-05-01 10:09 46.19633 21.45479 37347 ft 480 kts 101°
2026-05-01 10:10 46.17851 21.54759 37339 ft 480 kts 101°
2026-05-01 10:10 46.15159 21.68686 37322 ft 482 kts 102°
2026-05-01 10:11 46.13350 21.77994 37319 ft 482 kts 102°
2026-05-01 10:11 46.11532 21.87297 37316 ft 482 kts 102°
2026-05-01 10:12 46.10018 21.95017 37321 ft 482 kts 102°
2026-05-01 10:13 46.06951 22.10554 37313 ft 484 kts 102°
2026-05-01 10:13 46.06339 22.13643 37308 ft 484 kts 102°